When you browse on this site, cookies collect data to enhance your experience and personalize the content and advertising you see.
Visit our Privacy Policy to learn more. By continuing to use the site, you agree to this use of cookies and data.
  • In United Kingdom
  • List of Countries
  • For 7 days
  • Water Temperature
  • Weather Map
  • Weather Widgets
  • user-avatar
    Login

    Hourly Weather Pivnivshchyna

    Today, 22 August, Thursday

    Time Temperature Precipitation Wind Pressure Humidity
    00:00 +21°C° 0 mm 2 mps 754 mmHg 74%
    01:00 +20°C° 0 mm 2 mps 754 mmHg 76%
    02:00 +21°C° 0 mm 1 mps 754 mmHg 77%
    03:00 +20°C° 0 mm 1 mps 755 mmHg 81%
    04:00 +19°C° 0 mm 2 mps 755 mmHg 85%
    05:00 +18°C° 0 mm 2 mps 755 mmHg 89%
    06:00 +19°C° 0 mm 3 mps 755 mmHg 87%
    07:00 +19°C° 0 mm 4 mps 755 mmHg 85%
    08:00 +20°C° 0 mm 6 mps 756 mmHg 83%
    09:00 +20°C° 0 mm 6 mps 756 mmHg 80%
    10:00 +21°C° 0 mm 5 mps 756 mmHg 78%
    11:00 +21°C° 0 mm 5 mps 756 mmHg 75%
    12:00 +21°C° 0 mm 5 mps 756 mmHg 72%
    13:00 +22°C° 0 mm 5 mps 757 mmHg 70%
    14:00 +23°C° 0 mm 5 mps 757 mmHg 67%
    15:00 +23°C° 0 mm 5 mps 757 mmHg 67%
    16:00 +22°C° 0 mm 5 mps 757 mmHg 67%
    17:00 +22°C° 0 mm 6 mps 757 mmHg 67%
    18:00 +21°C° 0 mm 5 mps 757 mmHg 72%
    19:00 +19°C° 0 mm 4 mps 757 mmHg 77%
    20:00 +18°C° 0 mm 3 mps 758 mmHg 82%
    21:00 +18°C° 0 mm 4 mps 758 mmHg 83%
    22:00 +17°C° 0 mm 4 mps 758 mmHg 84%
    23:00 +17°C° 0 mm 4 mps 758 mmHg 85%

    Tomorrow, 23 August, Friday

    Time Temperature Precipitation Wind Pressure Humidity
    00:00 +15°C° 0 mm 4 mps 758 mmHg 86%
    01:00 +15°C° 0 mm 4 mps 759 mmHg 87%
    02:00 +14°C° 0 mm 4 mps 759 mmHg 89%
    03:00 +14°C° 0 mm 4 mps 759 mmHg 89%
    04:00 +14°C° 0 mm 4 mps 759 mmHg 89%
    05:00 +13°C° 0 mm 3 mps 758 mmHg 89%
    06:00 +15°C° 0 mm 4 mps 759 mmHg 84%
    07:00 +17°C° 0 mm 4 mps 759 mmHg 79%
    08:00 +18°C° 0 mm 4 mps 759 mmHg 74%
    09:00 +19°C° 0 mm 4 mps 759 mmHg 69%
    10:00 +20°C° 0 mm 4 mps 759 mmHg 65%
    11:00 +22°C° 0 mm 4 mps 759 mmHg 60%
    12:00 +22°C° 0 mm 4 mps 759 mmHg 57%
    13:00 +23°C° 0 mm 4 mps 759 mmHg 53%
    14:00 +23°C° 0 mm 4 mps 759 mmHg 50%
    15:00 +23°C° 0 mm 4 mps 759 mmHg 52%
    16:00 +23°C° 0 mm 4 mps 758 mmHg 54%
    17:00 +22°C° 0 mm 3 mps 758 mmHg 56%
    18:00 +21°C° 0 mm 3 mps 758 mmHg 62%
    19:00 +19°C° 0 mm 3 mps 758 mmHg 68%
    20:00 +17°C° 0 mm 3 mps 759 mmHg 74%
    21:00 +16°C° 0 mm 3 mps 759 mmHg 76%
    22:00 +14°C° 0 mm 3 mps 759 mmHg 79%
    23:00 +14°C° 0 mm 3 mps 759 mmHg 81%

    Day after tomorrow, 24 August, Saturday

    Time Temperature Precipitation Wind Pressure Humidity
    00:00 +14°C° 0 mm 2 mps 759 mmHg 82%
    01:00 +14°C° 0 mm 2 mps 759 mmHg 84%
    02:00 +13°C° 0 mm 2 mps 759 mmHg 85%
    03:00 +13°C° 0 mm 2 mps 759 mmHg 87%
    04:00 +13°C° 0 mm 2 mps 759 mmHg 89%
    05:00 +12°C° 0 mm 2 mps 759 mmHg 90%
    06:00 +14°C° 0 mm 2 mps 759 mmHg 82%
    07:00 +16°C° 0 mm 2 mps 759 mmHg 74%
    08:00 +19°C° 0 mm 2 mps 759 mmHg 67%
    09:00 +20°C° 0 mm 2 mps 759 mmHg 59%
    10:00 +23°C° 0 mm 2 mps 759 mmHg 52%
    11:00 +24°C° 0 mm 3 mps 758 mmHg 44%
    12:00 +25°C° 0 mm 2 mps 758 mmHg 41%
    13:00 +26°C° 0 mm 2 mps 758 mmHg 39%
    14:00 +26°C° 0 mm 2 mps 758 mmHg 36%
    15:00 +26°C° 0 mm 2 mps 758 mmHg 39%
    16:00 +26°C° 0 mm 2 mps 757 mmHg 43%
    17:00 +25°C° 0 mm 2 mps 757 mmHg 46%
    18:00 +23°C° 0 mm 2 mps 757 mmHg 52%
    19:00 +20°C° 0 mm 2 mps 757 mmHg 59%
    20:00 +17°C° 0 mm 2 mps 757 mmHg 65%
    21:00 +17°C° 0 mm 2 mps 758 mmHg 68%
    22:00 +16°C° 0 mm 2 mps 758 mmHg 70%
    23:00 +15°C° 0 mm 1 mps 758 mmHg 73%

    25 August, Sunday

    Time Temperature Precipitation Wind Pressure Humidity
    00:00 +15°C° 0 mm 1 mps 758 mmHg 75%
    01:00 +14°C° 0 mm 1 mps 758 mmHg 77%
    02:00 +14°C° 0 mm 1 mps 758 mmHg 79%
    03:00 +14°C° 0 mm 1 mps 757 mmHg 80%
    04:00 +13°C° 0 mm 1 mps 757 mmHg 82%
    05:00 +13°C° 0 mm 1 mps 757 mmHg 83%
    06:00 +15°C° 0 mm 1 mps 757 mmHg 77%
    07:00 +18°C° 0 mm 2 mps 758 mmHg 70%
    08:00 +20°C° 0 mm 2 mps 758 mmHg 63%
    09:00 +21°C° 0 mm 2 mps 758 mmHg 59%
    10:00 +24°C° 0 mm 2 mps 758 mmHg 54%
    11:00 +25°C° 0 mm 2 mps 758 mmHg 50%
    12:00 +26°C° 0 mm 3 mps 758 mmHg 49%
    13:00 +27°C° 0 mm 3 mps 758 mmHg 48%
    14:00 +27°C° 0 mm 3 mps 757 mmHg 47%
    15:00 +27°C° 0 mm 3 mps 757 mmHg 51%
    16:00 +26°C° 0 mm 3 mps 757 mmHg 54%
    17:00 +26°C° 0 mm 3 mps 757 mmHg 58%
    18:00 +24°C° 0 mm 3 mps 757 mmHg 66%
    19:00 +21°C° 0 mm 3 mps 757 mmHg 74%
    20:00 +19°C° 0 mm 3 mps 758 mmHg 82%
    21:00 +18°C° 0 mm 3 mps 758 mmHg 82%
    22:00 +17°C° 0 mm 3 mps 758 mmHg 82%
    23:00 +16°C° 0 mm 3 mps 758 mmHg 82%

    26 August, Monday

    Time Temperature Precipitation Wind Pressure Humidity
    00:00 +16°C° 0 mm 3 mps 758 mmHg 84%
    01:00 +14°C° 0 mm 3 mps 759 mmHg 86%
    02:00 +15°C° 0 mm 2 mps 759 mmHg 88%
    03:00 +14°C° 0 mm 2 mps 759 mmHg 89%
    04:00 +14°C° 0 mm 2 mps 759 mmHg 89%
    05:00 +14°C° 0 mm 2 mps 759 mmHg 89%
    06:00 +14°C° 0 mm 3 mps 759 mmHg 82%
    07:00 +17°C° 0 mm 3 mps 759 mmHg 75%
    08:00 +19°C° 0 mm 3 mps 760 mmHg 68%
    09:00 +20°C° 0 mm 3 mps 760 mmHg 61%
    10:00 +22°C° 0 mm 3 mps 760 mmHg 54%
    11:00 +24°C° 0 mm 3 mps 760 mmHg 47%
    12:00 +25°C° 0 mm 3 mps 759 mmHg 44%
    13:00 +26°C° 0 mm 3 mps 759 mmHg 42%
    14:00 +26°C° 0 mm 3 mps 759 mmHg 39%
    15:00 +26°C° 0 mm 3 mps 758 mmHg 42%
    16:00 +25°C° 0 mm 2 mps 758 mmHg 45%
    17:00 +25°C° 0 mm 2 mps 758 mmHg 47%
    18:00 +23°C° 0 mm 2 mps 758 mmHg 54%
    19:00 +19°C° 0 mm 2 mps 758 mmHg 60%
    20:00 +17°C° 0 mm 2 mps 757 mmHg 67%
    21:00 +17°C° 0 mm 2 mps 758 mmHg 68%
    22:00 +16°C° 0 mm 2 mps 758 mmHg 70%
    23:00 +15°C° 0 mm 2 mps 758 mmHg 71%

    27 August, Tuesday

    Time Temperature Precipitation Wind Pressure Humidity
    00:00 +15°C° 0 mm 2 mps 757 mmHg 73%
    01:00 +15°C° 0 mm 2 mps 757 mmHg 74%
    02:00 +14°C° 0 mm 2 mps 757 mmHg 75%
    03:00 +14°C° 0 mm 1 mps 757 mmHg 78%
    04:00 +13°C° 0 mm 1 mps 757 mmHg 81%
    05:00 +13°C° 0 mm 1 mps 757 mmHg 83%
    06:00 +15°C° 0 mm 1 mps 756 mmHg 76%
    07:00 +18°C° 0 mm 1 mps 756 mmHg 69%
    08:00 +20°C° 0 mm 1 mps 756 mmHg 61%
    09:00 +22°C° 0 mm 1 mps 756 mmHg 56%
    10:00 +23°C° 0 mm 1 mps 756 mmHg 50%
    11:00 +25°C° 0 mm 1 mps 756 mmHg 44%
    12:00 +26°C° 0 mm 2 mps 755 mmHg 43%
    13:00 +26°C° 0 mm 2 mps 755 mmHg 41%
    14:00 +27°C° 0 mm 2 mps 754 mmHg 40%
    15:00 +26°C° 0 mm 2 mps 754 mmHg 43%
    16:00 +26°C° 0 mm 2 mps 754 mmHg 47%
    17:00 +25°C° 0 mm 2 mps 754 mmHg 51%
    18:00 +23°C° 0 mm 2 mps 754 mmHg 58%
    19:00 +20°C° 0 mm 2 mps 753 mmHg 66%
    20:00 +18°C° 0 mm 2 mps 753 mmHg 73%
    21:00 +18°C° 0 mm 2 mps 753 mmHg 77%
    22:00 +17°C° 0 mm 2 mps 753 mmHg 80%
    23:00 +16°C° 0 mm 1 mps 753 mmHg 84%
    Show more